This is the latest recevied weather packets stored in our database for station/object SQ5RTW-1. If no packets are shown the sender has not sent any weather packets the latest 10 day(s).
| Time | Temp. | Humidity | Pressure | Rain* | Wind** | Luminosity | Snow |
|---|---|---|---|---|---|---|---|
| 1777575330 | 12.78° C | 37% | 1029.6 hPa | - | - | - | - |
| 1777575313 | 13.89° C | 38% | 1029.6 hPa | - | - | - | - |
| 1777575288 | 11.67° C | 37% | 1029.6 hPa | - | - | - | - |
| 1777574387 | 11.67° C | 39% | 1029.7 hPa | - | - | - | - |
| 1777573487 | 11.67° C | 38% | 1029.8 hPa | - | - | - | - |
| 1777572586 | 13.33° C | 38% | 1029.8 hPa | - | - | - | - |
| 1777572569 | 14.44° C | 39% | 1029.7 hPa | - | - | - | - |
| 1777572544 | 12.22° C | 38% | 1029.8 hPa | - | - | - | - |
| 1777571644 | 12.22° C | 36% | 1029.7 hPa | - | - | - | - |
| 1777571004 | 12.22° C | 35% | 1029.9 hPa | - | - | - | - |
| 1777570743 | 12.22° C | 35% | 1029.9 hPa | - | - | - | - |
| 1777569842 | 13.33° C | 34% | 1029.7 hPa | - | - | - | - |
| 1777568940 | 16.11° C | 29% | 1029.8 hPa | - | - | - | - |
| 1777568923 | 16.67° C | 29% | 1029.7 hPa | - | - | - | - |
| 1777568899 | 14.44° C | 29% | 1029.8 hPa | - | - | - | - |
| 1777567998 | 18.33° C | 25% | 1030 hPa | - | - | - | - |
| 1777567097 | 21.11° C | 22% | 1030.3 hPa | - | - | - | - |
| 1777566196 | 16.67° C | 25% | 1029.9 hPa | - | - | - | - |
| 1777565295 | 17.78° C | 26% | 1030.1 hPa | - | - | - | - |
| 1777565279 | 18.89° C | 26% | 1030 hPa | - | - | - | - |
| 1777565254 | 16.67° C | 26% | 1030.1 hPa | - | - | - | - |
| 1777564353 | 16.11° C | 27% | 1030.2 hPa | - | - | - | - |
| 1777563452 | 16.11° C | 26% | 1030.3 hPa | - | - | - | - |
| 1777562551 | 17.78° C | 25% | 1030.1 hPa | - | - | - | - |
| 1777562535 | 18.89° C | 25% | 1030.2 hPa | - | - | - | - |
* Rain since midnight (hover to see other rain measurements)
** Current wind speed in m/s (hover to see current wind gust speed)